Regional Weather Roundup
Issued by NWS

Home | Current Version | Previous Version | Graphics & Text | Print | Product List | Glossary On
Versions: 1 2 3 4 5 6 7 8 9 10 11 12 13 14 15 16 17 18 19 20 21 22 23 24 25 26 27
000
ASUS45 KBOU 251207
RWRCO

WEATHER ROUNDUP FOR COLORADO
NATIONAL WEATHER SERVICE DENVER/BOULDER CO
600 AM MDT MON JUL 25 2016

NOTE: "FAIR" INDICATES FEW OR NO CLOUDS BELOW 12000 FEET WITH NO
SIGNIFICANT WEATHER AND/OR OBSTRUCTIONS TO VISIBILITY.

COZ001>005-013-030-031-251300-
...NORTHWEST COLORADO...

CITY           SKY/WX    TMP DP  RH WIND       PRES   REMARKS
CRAIG          FAIR      46  39  76 CALM      30.27R
HAYDEN         FAIR      54  37  54 E14       30.29R
MEEKER         FAIR      48  39  71 NE5       30.28R
MOUNT WERNER   NOT AVBL
STEAMBOAT SPGS FAIR      46  39  78 CALM      30.32S
WALDEN         FAIR      39  32  75 SE5       30.43R
$$

COZ006>008-011-251300-
...WEST CENTRAL VALLEYS...

CITY           SKY/WX    TMP DP  RH WIND       PRES   REMARKS
GRAND JUNCTION FAIR      68  42  38 SE10      30.14R
MONTROSE       FAIR      67  39  35 SE13      30.25R
EAGLE          FAIR      50  39  66 CALM      30.38R
RIFLE          FAIR      57  39  51 E3        30.23R
DELTA          FAIR      65  43  45 NE8       30.21R
NUCLA          FAIR     N/A N/A N/A SE9       30.28R
$$

COZ017>023-064>068-251300-
...SOUTHWEST COLORADO...

CITY           SKY/WX    TMP DP  RH WIND       PRES   REMARKS
DURANGO        FAIR      58  46  64 N5        30.33S
CORTEZ         FAIR      60  47  61 CALM      30.25S
PAGOSA SPRINGS FAIR      53  41  63 CALM      30.42R
TELLURIDE      FAIR      55  41  60 SE8       30.53S
WOLF CREEK PAS FAIR      50  36  57 SW8       30.75R
$$

COZ009-010-012-014-032>034-037-058>063-251300-
...CENTRAL COLORADO...

CITY           SKY/WX    TMP DP  RH WIND       PRES   REMARKS
ASPEN          FAIR      49  38  65 CALM      30.40R
BUENA VISTA    FAIR      49  44  83 N5        30.46S
COPPER MTN     FAIR      55  30  38 S12       30.73S
BERTHOUD PASS  FAIR      46  32  57 W8        30.76R
COTTONWOOD PAS FAIR      55  37  50 W3        30.58S
GUNNISON       FAIR      46  37  71 CALM      30.48R
KREMMLING      FOG       41  37  87 CALM      30.42S VSB<1/4
LEADVILLE      FAIR      41  37  86 CALM      30.58R
MONARCH PASS   FAIR      50  36  57 MISG      30.83S
SALIDA         FAIR      58  46  65 NW6       30.50S
SUNLIGHT       FAIR      57  34  41 CALM      30.64R
WILKERSON PASS FAIR      50  37  62 W6        30.70S
$$

COZ069>075-251300-
...SAN LUIS VALLEY/SANGRE DE CRISTO MOUNTAINS...

CITY           SKY/WX    TMP DP  RH WIND       PRES   REMARKS
ALAMOSA        FAIR      53  46  77 CALM      30.40R
LA VETA PASS   FAIR      54  41  62 CALM      30.58S
SAGUACHE       FAIR      54  43  66 N10       30.44S
$$

COZ035-036-038>040-251300-
...NORTHERN COLORADO FRONT RANGE...

CITY           SKY/WX    TMP DP  RH WIND       PRES   REMARKS
DENVER INTL AP FAIR      59  52  77 SW6       30.21F
DMNS CITY PARK   N/A     60  56  88 S3        30.21S
AURORA         PTCLDY    58  54  85 S6        30.23F
FRONT RANGE AP NOT AVBL
ERIE MUNI ARPT FAIR      54  51  92 CALM      30.21S
BOULDER MUN AP FAIR      59  52  77 CALM      30.21S
CENTENNIAL     FAIR      58  51  78 SE5       30.24F
BROOMFIELD     FAIR      57  52  82 CALM      30.23F
LONGMONT       FAIR      56  53  89 W3        30.22S
$$

COZ041-046-047-076>085-087-088-251300-
...PIKES PEAK/PALMER DIVIDE AND SOUTHERN FOOTHILLS...

CITY           SKY/WX    TMP DP  RH WIND       PRES   REMARKS
COLO. SPRINGS  FAIR      57  52  83 N3        30.31F
A. F. ACADEMY  FAIR      51  51  97 N6        30.32S
SCHRIEVER AFB  NOT AVBL
ELLICOTT       FAIR     N/A N/A N/A CALM      30.29F
FALCON         NOT AVBL
FORT CARSON    FAIR      55  53  92 N3        30.28S
LIMON          FAIR      50  49  96 N3        30.25S
MONUMENT HILL  FAIR      54  50  87 SW10      30.35R
TRINIDAD       NOT AVBL
$$

COZ042>045-048>051-090-091-251300-
...NORTHEAST COLORADO...

CITY           SKY/WX    TMP DP  RH WIND       PRES   REMARKS
GREELEY ARPT   FAIR      55  54  94 CALM      30.20S
AKRON          FAIR      56  54  93 E7        30.23S
BURLINGTON     FAIR      59  56  89 NE7       30.22S
WRAY           NOT AVBL
STERLING       FAIR      57  55  94 E5        30.19R
HOLYOKE          N/A     59  55  88 W7        30.21R
FORT MORGAN    FAIR      56  54  91 E9        30.21S
$$

COZ086-089-092>099-251300-
...SOUTHEAST COLORADO...

CITY           SKY/WX    TMP DP  RH WIND       PRES   REMARKS
PUEBLO         FAIR      65  57  75 S3        30.23R
LA JUNTA       FAIR      64  61  90 CALM      30.22R
LAMAR          FAIR      57  56  96 SW6       30.18R
SPRINGFIELD      N/A     56  54  93 NW5       30.20F
$$




USA.gov is the U.S. government's official web portal to all federal, state and local government web resources and services.